FW0266 Weather Reports


Display with metric or nautical units.
time (UTC)temp
F
wind
direction
speed
MPH
gust
MPH
rain 1hr
in
rain 24hr
in
rain mn
in
humidity
%
barometer
mb
20260901151521 80 111 5.0 11.0 0.00 0.00 0.00 54 1010.5
20260901150017 79 98 5.0 13.0 0.00 0.00 0.00 55 1010.5
20260901144523 79 116 5.0 13.0 0.00 0.00 0.00 54 1010.5
20260901143014 78 129 3.0 11.0 0.00 0.00 0.00 55 1010.7
20260901141513 78 122 5.0 8.0 0.00 0.00 0.00 56 1010.6
20260901140011 0 0.0 0.0 0.00 0.00 0.00 1010.5
20260901134507 0 0.0 0.0 0.00 0.00 0.00 1010.5
20260901133004 0 0.0 0.0 0.00 0.00 0.00 1010.2
20260901131558 0 0.0 0.0 0.00 0.00 0.00 1010.0
20260901130056 75 102 2.0 6.0 0.00 0.00 0.00 60 1009.8
20260901124553 75 96 3.0 7.0 0.00 0.00 0.00 60 1009.7
20260901123051 75 100 1.0 5.0 0.00 0.00 0.00 60 1009.6
20260901121550 75 105 3.0 7.0 0.00 0.00 0.00 60 1009.7
20260901120051 76 104 5.0 11.0 0.00 0.00 0.00 60 1009.7
20260901114548 76 100 3.0 12.0 0.00 0.00 0.00 61 1009.7
20260901113047 76 110 7.0 12.0 0.00 0.00 0.00 61 1009.7
20260901111546 76 120 5.0 12.0 0.00 0.00 0.00 61 1009.6
20260901110046 76 104 6.0 12.0 0.00 0.00 0.00 59 1009.7
20260901104546 76 117 7.0 16.0 0.00 0.00 0.00 60 1009.6
20260901103048 76 127 9.0 14.0 0.00 0.00 0.00 59 1009.6
20260901101603 76 118 8.0 18.0 0.00 0.00 0.00 59 1009.6
20260901100045 76 97 6.0 16.0 0.00 0.00 0.00 58 1009.6
20260901094543 76 113 7.0 12.0 0.00 0.00 0.00 59 1009.7
20260901093042 76 105 7.0 16.0 0.00 0.00 0.00 59 1009.7
20260901091541 76 127 7.0 15.0 0.00 0.00 0.00 60 1009.7
20260901090040 76 104 9.0 15.0 0.00 0.00 0.00 58 1009.7
20260901084539 77 122 10.0 17.0 0.00 0.00 0.00 57 1009.7
20260901083035 77 117 7.0 13.0 0.00 0.00 0.00 55 1009.6
20260901081534 78 104 5.0 11.0 0.00 0.00 0.00 53 1009.6
20260901080036 78 114 6.0 13.0 0.00 0.00 0.00 51 1009.4
20260901074542 78 113 6.0 12.0 0.00 0.00 0.00 50 1009.4
20260901073038 77 101 5.0 11.0 0.00 0.00 0.00 49 1009.4
20260901071529 77 105 4.0 9.0 0.00 0.00 0.00 50 1009.2
20260901070030 77 109 4.0 9.0 0.00 0.00 0.00 51 1009.0
20260901064530 78 108 7.0 10.0 0.00 0.00 0.00 51 1008.8
20260901063023 78 102 7.0 12.0 0.00 0.00 0.00 51 1009.0
20260901061521 78 106 8.0 14.0 0.00 0.00 0.00 51 1008.9
20260901060019 78 153 7.0 14.0 0.00 0.00 0.00 51 1008.9
20260901054516 79 105 7.0 13.0 0.00 0.00 0.00 51 1008.8
20260901053014 78 111 6.0 13.0 0.00 0.00 0.00 50 1008.8
20260901051529 79 98 7.0 12.0 0.00 0.00 0.00 49 1008.7
20260901050013 79 118 5.0 13.0 0.00 0.00 0.00 50 1008.7
20260901044510 78 118 5.0 12.0 0.00 0.00 0.00 54 1008.6
20260901043009 79 102 6.0 12.0 0.00 0.00 0.00 53 1008.5
20260901041509 79 101 6.0 11.0 0.00 0.00 0.00 54 1008.4
20260901040017 79 87 5.0 13.0 0.00 0.00 0.00 56 1008.3
20260901034504 79 115 8.0 14.0 0.00 0.00 0.00 57 1008.1
20260901033003 79 117 9.0 14.0 0.00 0.00 0.00 58 1008.2
20260901031502 80 135 8.0 15.0 0.00 0.00 0.00 57 1007.9
20260901030002 80 108 7.0 13.0 0.00 0.00 0.00 57 1007.7
20260901024502 80 113 9.0 17.0 0.00 0.00 0.00 57 1007.3
20260901023000 80 120 10.0 17.0 0.00 0.00 0.00 56 1007.2
20260901021600 81 103 11.0 17.0 0.00 0.00 0.00 55 1006.9
20260901014601 83 138 10.0 17.0 0.00 0.00 0.00 52 1006.7
20260901013059 84 102 11.0 20.0 0.00 0.00 0.00 51 1006.6
20260901011559 84 103 9.0 18.0 0.00 0.00 0.00 50 1006.5
20260901010057 84 124 12.0 20.0 0.00 0.00 0.00 50 1006.6
20260901004555 85 97 11.0 19.0 0.00 0.00 0.00 48 1006.4
20260901003055 86 139 11.0 17.0 0.00 0.00 0.00 46 1006.4
20260901001559 86 103 12.0 17.0 0.00 0.00 0.00 45 1006.5
20260831234613 88 143 10.0 20.0 0.00 0.00 0.00 42 1006.6
20260831233108 87 128 13.0 19.0 0.00 0.00 0.00 41 1006.6
20260831231553 87 131 13.0 21.0 0.00 0.00 0.00 44 1006.8
20260831230053 87 107 13.0 22.0 0.00 0.00 0.00 43 1006.8
20260831224549 88 160 10.0 22.0 0.00 0.00 0.00 43 1006.8
20260831223049 87 108 9.0 20.0 0.00 0.00 0.00 45 1007.1
20260831221550 87 131 10.0 18.0 0.00 0.00 0.00 46 1007.1
20260831220047 86 101 10.0 17.0 0.00 0.00 0.00 46 1007.4
20260831214551 86 115 11.0 21.0 0.00 0.00 0.00 47 1007.6
20260831213044 87 103 12.0 20.0 0.00 0.00 0.00 45 1007.7
20260831211545 86 122 9.0 18.0 0.00 0.00 0.00 47 1007.8
20260831210046 86 121 11.0 20.0 0.00 0.00 0.00 47 1008.2
20260831204542 88 125 6.0 21.0 0.00 0.00 0.00 46 1008.3
20260831203042 87 96 10.0 20.0 0.00 0.00 0.00 46 1008.6
20260831201546 86 104 6.0 22.0 0.00 0.00 0.00 47 1008.8
20260831200038 85 37 7.0 21.0 0.00 0.00 0.00 47 1009.0
20260831194537 84 98 11.0 25.0 0.00 0.00 0.00 47 1009.2
20260831193035 84 101 11.0 22.0 0.00 0.00 0.00 48 1009.5
20260831191535 84 88 9.0 21.0 0.00 0.00 0.00 50 1009.6
20260831190038 85 104 10.0 22.0 0.00 0.00 0.00 47 1009.4
20260831184537 85 102 10.0 20.0 0.00 0.00 0.00 46 1009.4
20260831183033 85 96 10.0 20.0 0.00 0.00 0.00 47 1009.6
20260831181530 85 110 13.0 18.0 0.00 0.00 0.00 46 1009.4
20260831180030 83 106 7.0 19.0 0.00 0.00 0.00 46 1009.6
20260831174530 83 109 10.0 19.0 0.00 0.00 0.00 43 1009.3
20260831173026 81 110 10.0 18.0 0.00 0.00 0.00 47 1009.4
20260831171526 79 128 10.0 15.0 0.00 0.00 0.00 52 1009.3
20260831170029 76 114 14.0 26.0 0.00 0.00 0.00 56 1009.1
20260831164550 79 88 8.0 15.0 0.00 0.00 0.00 53 1009.1
20260831163016 78 127 6.0 10.0 0.00 0.00 0.00 54 1008.9
20260831161518 77 96 5.0 12.0 0.00 0.00 0.00 57 1008.6
20260831160016 77 108 6.0 16.0 0.00 0.00 0.00 60 1008.3
20260831154511 78 105 9.0 16.0 0.00 0.00 0.00 54 1008.5